SCP
0 0 0 0 0 0 0 0 0 0 0 0 0 0 0 0 0 0 0 0 0 0 0 0 0 0 0 0 0 0 0 0 0 0 0 0 0 0 0 0 0 0 0
0 0 0 0 0 0 0 0 0 0 0 0 0 0 0 0 0 0 0 0 0 0 0 0 0 0 0 0 0 0 0 0 0 0 0 0 0 0 0 0 0 0 0
0 0 0 0 0 0 0 0 0 0 0 0 0 0 0 0 0 0 0 0 0 0 0 0 0 0 0 0 0 0 0 0 0 0 0 0 0 0 0 0 0 0 0
0 0 0 0 0 0 0 0 0 0 0 0 0 0 0 0 0 0 0 0 0 0 0 0 0 0 0 0 0 0 0 0 0 0 0 0 0 0 0 0 0 0 0
0 0 0 0 0 0 0 0 0 0 0 0 0 0 0 0 0 0 0 0 0 0 0 0 0 0 0 0 0 0 0 0 0 0 0 0 0 0 0 0 0 0 0
0 0 0 0 0 0 0 0 0 0 0 0 0 0 0 0 0 0 0 0 0 0 0 0 0 0 0 0 0 0 0 0 0 0 0 0 0 0 0 0 0 0 0
0 0 0 0 0 0 0 0 0 0 0 0 0 0 0 0 0 0 0 0 0 0 0 0 0 0 0 0 0 0 0 0 0 0 0 0 0 0 0 0 0 0 0
0 0 0 0 0 0 0 0 0 0 0 0 0 0 0 0 0 0 0 0 0 0 0 0 0 0 0 0 0 0 0 0 0 0 0 0 0 0 0 0 0 0 0
0 0 0 0 0 0 0 0 0 0 0 0 0 0 0 0 0 0 0 0 0 0 0 0 0 0 0 0 0 0 0 0 0 0 0 0 0 0 0 0 0 0 0
0 0 0 0 0 0 0 0 0 0 0 0 0 0 0 0 0 0 0 0 0 0 0 0 0 0 0 0 0 0 0 0 0 0 0 0 0 0 0 0 0 0 0
0 0 0 0 0 0 0 0 0 0 0 0 0 0 0 0 0 0 0 0 0 0 0 0 0 0 0 0 0 0 0 0 0 0 0 0 0 0 0 0 0 0 0
0 0 0 0 0 0 0 0 0 0 0 0 0 0 0 0 0 0 0 0 0 0 0 0 0 0 0 0 0 0 0 0 0 0 0 0 0 0 0 0 0 0 0
0 0 0 0 0 0 0 0 0 0 0 0 0 0 0 0 0 0 0 0 0 0 0 0 0 0 0 0 0 0 0 0 0 0 0 0 0 0 0 0 0 0 0
0 0 0 0 0 0 0 0 0 0 0 0 0 0 0 0 0 0 0 0 0 0 0 0 0 0 0 0 0 0 0 0 0 0 0 0 0 0 0 0 0 0 0
0 0 0 0 0 0 0 0 0 0 0 0 0 0 0 0 0 0 0 0 0 0 0 0 0 0 0 0 0 0 0 0 0 0 0 0 0 0 0 0 0 0 0
0 0 0 0 0 0 0 0 0 0 0 0 0 0 0 0 0 0 0 0 0 0 0 0 0 0 0 0 0 0 0 0 0 0 0 0 0 0 0 0 0 0 0
0 0 0 0 0 0 0 0 0 0 0 0 0 0 0 0 0 0 0 0 0 0 0 0 0 0 0 0 0 0 0 0 0 0 0 0 0 0 0 0 0 0 0
0 0 0 0 0 0 0 0 0 0 0 0 0 0 0 0 0 0 0 0 0 0 0 0 0 0 0 0 0 0 0 0 0 0 0 0 0 0 0 0 0 0 0
0 0 0 0 0 0 0 0 0 0 0 0 0 0 0 0 0 0 0 0 0 0 0 0 0 0 0 0 0 0 0 0 0 0 0 0 0 0 0 0 0 0 0
0 0 0 0 0 0 0 0 0 0 0 0 0 0 0 0 0 0 0 0 0 0 0 0 0 0 0 0 0 0 0 0 0 0 0 0 0 0 0 0 0 0 0
0 0 0 0 0 0 0 0 0 0 0 0 0 0 0 0 0 0 0 0 0 0 0 0 0 0 0 0 0 0 0 0 0 0 0 0 0 0 0 0 0 0 0
0 0 0 0 0 0 0 0 0 0 0 0 0 0 0 0 0 0 0 0 0 0 0 0 0 0 0 0 0 0 0 0 0 0 0 0 0 0 0 0 0 0 0
0 0 0 0 0 0 0 0 0 0 0 0 0 0 0 0 0 0 0 0 0 0 0 0 0 0 0 0 0 0 0 0 0 0 0 0 0 0 0 0 0 0 0
0 0 0 0 0 0 0 0 0 0 0 0 0 0 0 0 0 0 0 0 0 0 0 0 0 0 0 0 0 0 0 0 0 0 0 0 0 0 0 0 0 0 0
0 0 0 0 0 0 0 0 0 0 0 0 0 0 0 0 0 0 0 0 0 0 0 0 0 0 0 0 0 0 0 0 0 0 0 0 0 0 0 0 0 0 0
0 0 0 0 0 0 0 0 0 0 0 0 0 0 0 0 0 0 0 0 0 0 0 0 0 0 0 0 0 0 0 0 0 0 0 0 0 0 0 0 0 0 0
Wind_Speed
2 1 2 1 1 1 1 1 1 3 4 4 4 5 4 4 5 5 4 9 10 10 10 10 10 9 8 8 8 8 8 8 8 7 7 8 8 7 7 6 7 7 7
2 1 2 2 2 1 1 2 3 3 3 3 3 4 4 4 4 4 4 5 9 9 10 11 10 10 10 9 9 9 8 8 8 8 9 9 8 8 8 7 7 7 7
2 2 2 2 1 2 2 3 3 3 2 3 3 4 4 4 3 3 3 3 3 7 9 10 10 10 10 9 9 9 9 9 9 8 8 8 8 8 8 8 8 8 8
4 2 2 2 2 2 2 2 2 2 2 2 2 2 2 2 3 3 2 2 2 3 6 9 10 10 10 10 10 10 10 10 9 8 8 8 8 8 8 8 9 10 10
3 3 2 2 3 2 2 2 2 2 2 1 1 2 2 2 2 3 3 3 2 3 3 5 8 9 10 10 11 11 11 10 10 9 9 9 8 9 9 8 8 9 9
3 3 1 2 3 2 2 2 2 2 1 1 2 3 2 2 3 3 3 3 3 4 3 4 3 5 9 10 10 10 10 10 10 10 9 9 8 8 8 8 8 8 8
2 2 2 3 3 2 2 3 2 2 1 1 2 2 1 2 2 2 2 2 3 3 3 3 3 3 4 8 9 10 10 9 9 9 9 8 8 8 8 8 8 8 8
2 2 3 2 3 3 3 3 2 2 1 1 1 1 1 2 2 2 1 2 2 2 3 4 4 4 3 3 6 10 9 9 9 9 9 9 8 7 7 7 7 7 8
3 3 2 2 2 3 2 1 2 2 1 2 2 1 1 0 1 1 2 2 2 3 3 3 5 4 5 4 3 7 10 10 10 10 10 9 9 8 8 7 7 8 8
3 2 2 2 3 2 2 1 2 1 2 1 2 1 1 2 1 0 2 1 2 3 3 4 4 5 5 4 5 8 10 9 10 10 10 10 10 9 8 8 8 8 8
2 2 2 2 2 2 3 3 2 2 1 1 1 1 2 1 1 1 0 1 1 2 2 3 3 3 4 4 3 6 9 8 9 10 10 10 10 10 10 9 9 8 8
1 1 1 2 2 2 3 2 2 2 2 2 2 1 1 1 1 1 1 0 1 1 2 2 2 2 3 3 5 7 8 8 8 9 10 10 10 10 10 10 9 9 9
1 1 1 1 2 2 2 2 2 2 2 2 2 2 2 2 1 2 2 1 1 0 1 1 1 2 3 3 3 5 6 7 7 8 9 10 10 10 10 10 10 10 9
2 2 2 1 2 2 3 2 2 1 2 2 2 2 2 2 2 2 1 1 1 1 1 1 1 2 2 2 2 2 3 6 6 7 8 8 9 9 9 10 10 10 10
3 3 3 2 2 2 3 3 2 2 3 3 2 2 2 1 2 2 1 1 1 1 1 1 1 1 1 2 2 2 3 5 5 6 6 6 7 8 8 8 8 9 9
2 3 3 3 3 3 3 3 2 2 2 2 2 3 3 2 2 2 2 1 1 1 0 1 1 0 2 3 3 2 3 5 4 5 5 5 6 6 7 8 8 8 8
3 3 3 3 3 3 3 2 2 2 2 1 1 2 2 3 2 2 2 2 2 2 1 1 2 3 4 3 2 1 2 2 2 3 4 4 5 6 7 7 7 7 8
3 3 3 3 3 3 3 3 3 2 2 2 2 2 2 3 3 2 2 3 2 2 2 1 2 3 3 2 2 1 1 2 1 2 3 4 4 5 6 6 6 7 7
3 3 3 3 3 3 3 2 3 3 3 2 2 3 3 3 2 2 2 2 2 2 2 2 1 2 2 2 3 3 3 2 1 2 3 3 3 4 4 5 6 6 6
4 3 3 3 3 3 3 2 3 3 3 3 4 4 4 4 3 3 3 3 2 2 2 2 2 1 2 2 2 2 2 2 2 2 2 1 1 2 3 4 4 4 5
3 3 3 3 4 3 2 2 2 3 3 4 4 4 4 6 7 5 4 4 4 3 2 2 2 2 2 2 2 1 1 2 2 2 1 1 1 1 1 1 2 3 3
3 3 4 4 4 3 5 6 4 2 3 3 3 3 4 4 6 7 8 7 6 4 3 2 2 2 1 1 1 1 1 2 2 3 1 2 1 0 1 1 1 0 2
3 4 4 5 5 4 5 5 5 3 3 3 2 2 2 3 3 3 4 4 5 5 3 2 2 1 1 1 1 2 2 1 1 2 1 2 2 2 1 1 4 3 1
3 3 4 5 4 4 5 4 3 2 2 3 2 2 3 3 3 3 3 3 3 2 1 2 2 1 1 1 1 1 1 1 1 2 2 1 2 3 3 1 4 3 3
3 3 4 4 4 3 4 4 3 2 2 3 3 4 4 4 5 6 3 3 2 1 2 2 2 1 2 4 3 2 3 2 2 2 1 1 2 3 3 1 2 4 4
4 4 4 4 4 4 4 4 4 1 2 2 2 3 5 5 5 5 3 2 2 2 2 2 2 1 1 2 3 1 0 0 1 2 2 1 2 3 3 3 2 2 3
Wind_Direction
96 100 97 78 84 84 94 64 54 53 50 52 54 63 61 66 79 83 74 72 66 58 54 52 51 50 55 57 55 56 54 53 53 52 55 52 48 46 44 41 37 36 30
106 103 98 67 54 46 45 63 73 66 58 55 52 62 65 62 79 94 103 78 71 65 56 52 50 49 52 56 59 57 56 56 55 54 55 52 48 43 40 38 34 32 32
96 75 84 90 78 50 43 46 63 65 75 70 59 60 61 61 72 88 102 113 89 70 64 57 52 52 52 52 57 57 57 56 54 55 56 53 49 45 42 38 34 31 28
89 71 64 74 77 67 62 63 65 59 55 62 66 60 69 66 58 60 80 97 107 94 75 68 60 56 53 55 58 58 57 55 54 55 54 53 50 46 44 41 40 37 33
87 90 68 64 74 64 55 67 62 66 65 57 97 78 77 77 63 52 57 64 71 100 104 84 73 63 58 56 57 58 56 55 55 56 56 54 53 50 47 44 43 40 35
74 85 81 78 80 72 53 69 81 75 69 54 63 64 57 75 68 50 43 49 54 79 97 103 93 74 64 59 55 54 53 52 51 52 53 51 50 49 47 45 43 38 34
67 72 68 68 63 68 61 59 65 73 56 74 68 47 34 57 80 66 44 51 53 58 82 94 95 94 76 61 50 51 49 49 50 50 51 49 45 47 46 44 42 37 35
63 84 86 90 82 70 55 56 62 52 20 57 95 95 52 14 13 67 63 58 55 50 54 70 76 81 81 77 51 46 43 43 46 47 49 47 44 45 43 42 39 38 38
57 57 78 88 101 97 86 66 66 60 28 10 53 97 108 116 331 1 54 65 61 50 47 55 63 64 73 69 58 42 45 38 39 42 44 44 44 42 42 40 38 38 38
54 48 65 80 90 97 96 69 68 50 53 17 358 12 90 139 135 27 356 47 77 67 55 57 59 61 66 72 66 53 47 38 38 39 39 40 41 40 39 38 38 38 38
62 47 46 65 77 85 91 76 59 37 47 49 20 0 13 17 45 120 89 351 46 61 68 71 74 72 69 71 75 58 53 44 41 40 37 36 35 36 36 35 35 36 38
104 95 63 60 80 85 87 89 91 66 44 23 18 35 55 43 6 47 79 56 82 81 80 79 84 95 93 76 73 63 57 52 47 41 37 35 34 33 33 33 33 34 36
122 123 95 55 69 82 89 83 87 86 76 51 47 38 39 39 39 58 70 30 14 175 96 77 87 99 99 99 91 69 60 59 51 45 40 38 37 35 32 31 31 32 33
147 134 119 103 89 86 94 84 73 77 80 71 61 54 53 34 36 63 78 74 17 6 58 68 49 81 98 112 101 85 75 71 59 51 44 40 38 36 35 34 33 31 30
146 141 141 133 108 87 74 79 72 61 64 50 41 41 50 47 45 42 50 79 98 34 360 348 16 49 97 107 105 106 108 89 73 61 51 44 39 35 35 36 35 34 32
139 143 141 138 132 114 91 76 72 64 95 92 72 47 35 30 31 37 33 28 62 106 33 340 3 89 91 105 110 105 105 103 86 79 64 48 41 39 37 34 35 38 36
151 150 143 139 133 129 128 123 127 100 88 104 99 83 62 48 36 28 32 40 37 64 75 355 33 51 67 69 73 84 124 118 109 95 73 60 52 47 36 34 40 43 40
152 151 139 131 129 124 130 139 133 121 101 79 74 79 74 72 52 32 42 44 37 55 87 44 36 43 57 63 61 43 68 98 114 120 100 81 67 56 42 43 50 49 41
149 139 131 134 135 132 127 122 122 123 109 90 75 74 66 73 63 52 64 47 35 47 63 82 55 40 44 41 38 20 26 21 57 110 105 79 69 59 49 45 48 46 37
142 137 129 128 121 114 112 115 120 111 104 90 77 67 58 59 45 44 56 40 49 50 47 68 56 40 39 20 41 15 9 3 4 26 45 59 80 68 63 53 46 32 25
133 127 118 112 101 94 89 97 104 106 110 106 98 88 82 82 72 66 67 43 42 44 42 57 50 42 31 21 4 341 11 342 339 13 8 338 26 47 94 48 39 24 24
121 111 113 107 96 84 79 78 74 78 92 104 111 120 118 99 95 85 80 71 62 59 48 45 45 49 7 349 347 354 10 11 328 326 0 325 11 324 198 181 194 104 21
121 115 115 111 106 94 92 85 73 68 78 83 87 94 90 89 98 117 98 81 57 46 60 97 67 27 9 333 6 356 357 359 279 294 8 319 333 326 285 210 202 194 220
126 123 116 117 115 110 110 101 81 86 87 79 70 77 87 77 45 70 91 83 74 44 51 97 115 85 53 13 28 0 303 331 337 353 38 314 312 310 307 252 218 211 233
133 131 129 129 124 125 130 122 104 103 100 91 75 64 80 86 52 50 62 71 55 30 58 78 95 88 35 12 21 26 9 17 337 321 357 358 314 315 304 285 246 247 259
144 137 131 141 136 132 135 137 137 123 118 108 93 79 70 86 75 63 66 68 56 351 14 27 16 348 337 353 11 76 115 356 326 315 331 0 321 339 319 304 307 284 276